Location: Bergnershof
(48.9468°N, 10.9431°E)
Time: 00:12:33
(UTC+00:00)

CSL-04 Debris - Pass Details

Date: 03 March 2021
Orbit: 826 x 848 km, 98.9° (Epoch: 13 April)

Event Time Altitude Azimuth Distance (km) Brightness Sun altitude
Rises 18:23:24 0° 168° (SSE) 3,372 7.1 -14.0°
Reaches altitude 10° 18:25:45 10° 170° (S) 2,445 6.4 -14.4°
Maximum altitude 18:31:10 75° 256° (WSW) 875 4.4 -15.3°
Drops below altitude 10° 18:36:40 10° 342° (NNW) 2,477 7.0 -16.1°
Sets 18:39:04 0° 344° (NNW) 3,419 7.7 -16.5°
